Location: Borgo
(42.3939°N, 9.2791°E)
Time: 19:07:01
(UTC+00:00)

Aureole 3 Rocket - Pass Details

Date: 24 January 2021
Orbit: 398 x 1740 km, 82.5° (Epoch: 02 March)

Event Time Altitude Azimuth Distance (km) Brightness Sun altitude
Rises 17:39:48 0° 3° (N) 2,330 5.9 -13.5°
Reaches altitude 10° 17:41:51 10° 15° (NNE) 1,502 4.8 -13.9°
Maximum altitude 17:44:41 30° 79° (E) 848 3.2 -14.4°
Drops below altitude 10° 17:47:59 10° 142° (SE) 1,759 5.1 -15.0°
Sets 17:50:34 0° 153° (SSE) 2,822 6.3 -15.5°
